| time (UTC) | temp F | wind direction | speed MPH | gust MPH | rain 1hr in | rain 24hr in | rain mn in | humidity % | barometer mb |
| 20260906120042 | 55 | 42 | 6.0 | 0.0 | 0.00 | 0.00 | 0.00 | 91 | 985.1 |
| 20260906114546 | 54 | 42 | 5.0 | 0.0 | 0.00 | 0.00 | 0.00 | 91 | 983.5 |
| 20260906113045 | 53 | 35 | 5.0 | 0.0 | 0.00 | 0.00 | 0.00 | 88 | 984.8 |
| 20260906111545 | 54 | 49 | 4.0 | 0.0 | 0.00 | 0.00 | 0.00 | 88 | 984.8 |
| 20260906110047 | 54 | 53 | 4.0 | 0.0 | 0.00 | 0.00 | 0.00 | 88 | 984.8 |
| 20260906104545 | 54 | 49 | 5.0 | 0.0 | 0.00 | 0.00 | 0.00 | 86 | 983.9 |
| 20260906103048 | 54 | 47 | 5.0 | 0.0 | 0.00 | 0.00 | 0.00 | 87 | 984.8 |
| 20260906101541 | 55 | 43 | 5.0 | 0.0 | 0.00 | 0.00 | 0.00 | 87 | 984.8 |
| 20260906100051 | 55 | 45 | 5.0 | 0.0 | 0.00 | 0.00 | 0.00 | 87 | 984.8 |
| 20260906094547 | 55 | 41 | 5.0 | 0.0 | 0.00 | 0.00 | 0.00 | 86 | 984.0 |
| 20260906093048 | 55 | 29 | 4.0 | 0.0 | 0.00 | 0.00 | 0.00 | 88 | 984.8 |
| 20260906091545 | 56 | 43 | 4.0 | 0.0 | 0.00 | 0.00 | 0.00 | 88 | 984.8 |
| 20260906090051 | 56 | 51 | 4.0 | 0.0 | 0.00 | 0.00 | 0.00 | 88 | 984.8 |
| 20260906084548 | 56 | 47 | 4.0 | 0.0 | 0.00 | 0.00 | 0.00 | 90 | 983.6 |
| 20260906083045 | 57 | 47 | 4.0 | 0.0 | 0.00 | 0.00 | 0.00 | 85 | 984.2 |
| 20260906081543 | 57 | 52 | 5.0 | 0.0 | 0.00 | 0.00 | 0.00 | 84 | 984.0 |
| 20260906080105 | 58 | 54 | 5.0 | 0.0 | 0.00 | 0.00 | 0.00 | 84 | 984.0 |
| 20260906074545 | 58 | 53 | 5.0 | 0.0 | 0.00 | 0.00 | 0.00 | 84 | 983.0 |
| 20260906073045 | 58 | 52 | 5.0 | 0.0 | 0.00 | 0.00 | 0.00 | 84 | 983.0 |
| 20260906071547 | 59 | 60 | 4.0 | 0.0 | 0.00 | 0.00 | 0.00 | 84 | 983.0 |
| 20260906070048 | 59 | 66 | 4.0 | 0.0 | 0.00 | 0.00 | 0.00 | 84 | 983.0 |
| 20260906064558 | 59 | 69 | 4.0 | 0.0 | 0.00 | 0.00 | 0.00 | 81 | 982.7 |
| 20260906063052 | 60 | 65 | 4.0 | 0.0 | 0.00 | 0.00 | 0.00 | 76 | 983.1 |
| 20260906061545 | 60 | 62 | 5.0 | 0.0 | 0.00 | 0.00 | 0.00 | 76 | 983.1 |
| 20260906060050 | 60 | 60 | 5.0 | 0.0 | 0.00 | 0.00 | 0.00 | 76 | 983.1 |
| 20260906054546 | 61 | 61 | 5.0 | 0.0 | 0.00 | 0.00 | 0.00 | 74 | 983.2 |
| 20260906053043 | 61 | 50 | 5.0 | 0.0 | 0.00 | 0.00 | 0.00 | 79 | 982.9 |
| 20260906051546 | 62 | 50 | 5.0 | 0.0 | 0.00 | 0.00 | 0.00 | 79 | 982.9 |
| 20260906050049 | 62 | 57 | 5.0 | 0.0 | 0.00 | 0.00 | 0.00 | 79 | 982.9 |
| 20260906044546 | 62 | 64 | 5.0 | 0.0 | 0.00 | 0.00 | 0.00 | 81 | 982.8 |
| 20260906043051 | 63 | 59 | 5.0 | 0.0 | 0.00 | 0.00 | 0.00 | 73 | 982.8 |
| 20260906041545 | 63 | 56 | 5.0 | 0.0 | 0.00 | 0.00 | 0.00 | 73 | 982.8 |
| 20260906040042 | 63 | 53 | 5.0 | 0.0 | 0.00 | 0.00 | 0.00 | 73 | 982.8 |
| 20260906034541 | 64 | 54 | 6.0 | 0.0 | 0.00 | 0.00 | 0.00 | 77 | 982.6 |
| 20260906033047 | 64 | 48 | 5.0 | 0.0 | 0.00 | 0.00 | 0.00 | 77 | 983.1 |
| 20260906031545 | 65 | 52 | 6.0 | 0.0 | 0.00 | 0.00 | 0.00 | 77 | 983.2 |
| 20260906030047 | 66 | 52 | 7.0 | 0.0 | 0.00 | 0.00 | 0.00 | 77 | 983.2 |
| 20260906024544 | 66 | 46 | 6.0 | 0.0 | 0.00 | 0.00 | 0.00 | 78 | 981.8 |
| 20260906023042 | 66 | 46 | 7.0 | 0.0 | 0.00 | 0.00 | 0.00 | 77 | 982.3 |
| 20260906021541 | 67 | 45 | 7.0 | 0.0 | 0.00 | 0.00 | 0.00 | 77 | 982.3 |
| 20260906020041 | 67 | 44 | 7.0 | 0.0 | 0.00 | 0.00 | 0.00 | 77 | 982.3 |
| 20260906015053 | 68 | 39 | 6.0 | 0.0 | 0.00 | 0.00 | 0.00 | 81 | 981.5 |
| 20260906013044 | 68 | 31 | 6.0 | 0.0 | 0.00 | 0.00 | 0.00 | 81 | 981.5 |
| 20260906011544 | 68 | 44 | 6.0 | 0.0 | 0.00 | 0.00 | 0.00 | 81 | 981.5 |
| 20260906010055 | 68 | 38 | 6.0 | 0.0 | 0.00 | 0.00 | 0.00 | 81 | 981.5 |
| 20260906004543 | 68 | 25 | 5.0 | 0.0 | 0.00 | 0.00 | 0.00 | 80 | 981.7 |
| 20260906003051 | 69 | 360 | 4.0 | 0.0 | 0.00 | 0.00 | 0.00 | 81 | 981.7 |
| 20260906001543 | 69 | 23 | 4.0 | 0.0 | 0.00 | 0.00 | 0.00 | 81 | 981.7 |
| 20260906000052 | 70 | 30 | 4.0 | 0.0 | 0.00 | 0.00 | 0.00 | 81 | 981.7 |
| 20260905234548 | 71 | 28 | 3.0 | 0.0 | 0.00 | 0.00 | 0.00 | 76 | 981.6 |
| 20260905233045 | 73 | 47 | 4.0 | 0.0 | 0.00 | 0.00 | 0.00 | 76 | 981.6 |
| 20260905231548 | 73 | 53 | 5.0 | 0.0 | 0.00 | 0.00 | 0.00 | 76 | 981.6 |
| 20260905230048 | 74 | 54 | 6.0 | 0.0 | 0.00 | 0.00 | 0.00 | 76 | 981.6 |
| 20260905224548 | 74 | 53 | 5.0 | 0.0 | 0.00 | 0.00 | 0.00 | 84 | 981.4 |
| 20260905223043 | 74 | 46 | 7.0 | 0.0 | 0.00 | 0.00 | 0.00 | 79 | 981.7 |
| 20260905221544 | 74 | 41 | 6.0 | 0.0 | 0.00 | 0.00 | 0.00 | 79 | 981.8 |
| 20260905220044 | 73 | 43 | 4.0 | 0.0 | 0.00 | 0.00 | 0.00 | 79 | 981.8 |
| 20260905214548 | 72 | 45 | 4.0 | 0.0 | 0.00 | 0.00 | 0.00 | 82 | 981.8 |
| 20260905213049 | 72 | 45 | 5.0 | 0.0 | 0.00 | 0.00 | 0.00 | 77 | 982.0 |
| 20260905211544 | 74 | 55 | 8.0 | 0.0 | 0.00 | 0.00 | 0.00 | 77 | 982.0 |
| 20260905210050 | 75 | 56 | 8.0 | 0.0 | 0.00 | 0.00 | 0.00 | 77 | 982.0 |
| 20260905204548 | 74 | 54 | 7.0 | 0.0 | 0.00 | 0.00 | 0.00 | 82 | 980.8 |
| 20260905203048 | 74 | 51 | 8.0 | 0.0 | 0.00 | 0.00 | 0.00 | 80 | 981.3 |
| 20260905201547 | 74 | 46 | 9.0 | 0.0 | 0.00 | 0.00 | 0.00 | 80 | 981.3 |
| 20260905200055 | 73 | 46 | 9.0 | 0.0 | 0.00 | 0.00 | 0.00 | 80 | 981.3 |
| 20260905194548 | 74 | 52 | 9.0 | 0.0 | 0.00 | 0.00 | 0.00 | 80 | 981.6 |
| 20260905193048 | 74 | 51 | 10.0 | 0.0 | 0.00 | 0.00 | 0.00 | 80 | 981.6 |
| 20260905191544 | 76 | 58 | 7.0 | 0.0 | 0.00 | 0.00 | 0.00 | 80 | 981.7 |
| 20260905190057 | 75 | 58 | 7.0 | 0.0 | 0.00 | 0.00 | 0.00 | 80 | 981.7 |
| 20260905184548 | 75 | 54 | 7.0 | 0.0 | 0.00 | 0.00 | 0.00 | 82 | 982.4 |
| 20260905183048 | 76 | 51 | 6.0 | 0.0 | 0.00 | 0.00 | 0.00 | 80 | 982.3 |
| 20260905181547 | 76 | 71 | 4.0 | 0.0 | 0.00 | 0.00 | 0.00 | 80 | 982.3 |
| 20260905180050 | 75 | 77 | 6.0 | 0.0 | 0.00 | 0.00 | 0.00 | 80 | 982.3 |
| 20260905174548 | 75 | 64 | 6.0 | 0.0 | 0.00 | 0.00 | 0.00 | 80 | 982.5 |
| 20260905173049 | 74 | 60 | 7.0 | 0.0 | 0.00 | 0.00 | 0.00 | 81 | 981.8 |
| 20260905171548 | 75 | 54 | 5.0 | 0.0 | 0.00 | 0.00 | 0.00 | 81 | 981.9 |
| 20260905170058 | 75 | 58 | 5.0 | 0.0 | 0.00 | 0.00 | 0.00 | 81 | 981.9 |
| 20260905164548 | 74 | 52 | 5.0 | 0.0 | 0.00 | 0.00 | 0.00 | 83 | 982.3 |
| 20260905163048 | 74 | 66 | 4.0 | 0.0 | 0.00 | 0.00 | 0.00 | 84 | 981.2 |
| 20260905161545 | 74 | 67 | 5.0 | 0.0 | 0.00 | 0.00 | 0.00 | 84 | 981.2 |
| 20260905160043 | 73 | 75 | 5.0 | 0.0 | 0.00 | 0.00 | 0.00 | 84 | 981.2 |
| 20260905154544 | 73 | 63 | 5.0 | 0.0 | 0.00 | 0.00 | 0.00 | 88 | 982.2 |
| 20260905153048 | 72 | 64 | 6.0 | 0.0 | 0.00 | 0.00 | 0.00 | 88 | 981.2 |
| 20260905151544 | 72 | 52 | 7.0 | 0.0 | 0.00 | 0.00 | 0.00 | 88 | 981.2 |
| 20260905150044 | 71 | 52 | 6.0 | 0.0 | 0.00 | 0.00 | 0.00 | 88 | 981.2 |
| 20260905144557 | 71 | 49 | 6.0 | 0.0 | 0.00 | 0.00 | 0.00 | 93 | 981.5 |
| 20260905143041 | 70 | 51 | 6.0 | 0.0 | 0.00 | 0.00 | 0.00 | 93 | 981.1 |
| 20260905141548 | 71 | 58 | 6.0 | 0.0 | 0.00 | 0.00 | 0.00 | 93 | 981.1 |
| 20260905140048 | 71 | 68 | 6.0 | 0.0 | 0.00 | 0.00 | 0.00 | 93 | 981.1 |
| 20260905134548 | 70 | 64 | 5.0 | 0.0 | 0.00 | 0.00 | 0.00 | 97 | 980.6 |
| 20260905133048 | 70 | 67 | 6.0 | 0.0 | 0.00 | 0.00 | 0.00 | 97 | 980.6 |
| 20260905131544 | 70 | 69 | 6.0 | 0.0 | 0.00 | 0.00 | 0.00 | 97 | 980.6 |
| 20260905130050 | 69 | 66 | 6.0 | 0.0 | 0.00 | 0.00 | 0.00 | 97 | 980.6 |
| 20260905124548 | 69 | 55 | 7.0 | 0.0 | 0.00 | 0.00 | 0.00 | 96 | 979.9 |
| 20260905123049 | 69 | 50 | 5.0 | 0.0 | 0.00 | 0.00 | 0.00 | 96 | 979.9 |
| 20260905121547 | 69 | 42 | 5.0 | 0.0 | 0.00 | 0.00 | 0.00 | 96 | 979.9 |